This is the latest recevied weather packets stored in our database for station/object KK6LVQ-13. If no packets are shown the sender has not sent any weather packets the latest 10 day(s).
| Time | Temp. | Humidity | Pressure | Rain* | Wind** | Luminosity | Snow |
|---|---|---|---|---|---|---|---|
| 1778162894 | 10° C | 99% | 1024.2 hPa | 0 mm | - | 37 W/m² | - |
| 1778162591 | 10° C | 99% | 1024.1 hPa | 0 mm | - | 37 W/m² | - |
| 1778162289 | 10° C | 99% | 1024.2 hPa | 0 mm | - | 30 W/m² | - |
| 1778161985 | 10° C | 99% | 1024.3 hPa | 0 mm | - | 26 W/m² | - |
| 1778161683 | 10° C | 99% | 1023.9 hPa | 0 mm | - | 22 W/m² | - |
| 1778161379 | 10° C | 99% | 1023.9 hPa | 0 mm | - | 20 W/m² | - |
| 1778161074 | 10° C | 99% | 1023.8 hPa | 0 mm | - | 17 W/m² | - |
| 1778160771 | 10° C | 99% | 1023.9 hPa | 0 mm | - | 13 W/m² | - |
| 1778160469 | 10° C | 99% | 1023.9 hPa | 0 mm | - | 10 W/m² | - |
| 1778160165 | 10° C | 99% | 1023.9 hPa | 0 mm | - | 7 W/m² | - |
| 1778159862 | 10° C | 99% | 1023.8 hPa | 0 mm | - | 5 W/m² | - |
| 1778159559 | 9.44° C | 99% | 1023.7 hPa | 0 mm | - | 4 W/m² | - |
| 1778159256 | 9.44° C | 99% | 1023.7 hPa | 0 mm | - | 2 W/m² | - |
| 1778158954 | 9.44° C | 99% | 1023.7 hPa | 0 mm | - | 1 W/m² | - |
| 1778158652 | 9.44° C | 99% | 1023.7 hPa | 0 mm | - | 1 W/m² | - |
| 1778158350 | 9.44° C | 99% | 1023.6 hPa | 0 mm | - | 0 W/m² | - |
| 1778158046 | 9.44° C | 99% | 1023.5 hPa | 0 mm | - | 0 W/m² | - |
| 1778157743 | 9.44° C | 99% | 1023.8 hPa | 0 mm | - | 0 W/m² | - |
| 1778157441 | 9.44° C | 99% | 1023.6 hPa | 0 mm | - | 0 W/m² | - |
| 1778157139 | 9.44° C | 99% | 1023.6 hPa | 0 mm | - | 0 W/m² | - |
| 1778156833 | 9.44° C | 99% | 1023.6 hPa | 0 mm | - | 0 W/m² | - |
| 1778156530 | 10° C | 99% | 1023.5 hPa | 0 mm | - | 0 W/m² | - |
| 1778156225 | 10° C | 99% | 1023.6 hPa | 0 mm | - | 0 W/m² | - |
| 1778155921 | 10° C | 99% | 1023.6 hPa | 0 mm | - | 0 W/m² | - |
| 1778155618 | 10° C | 99% | 1023.5 hPa | 0 mm | - | 0 W/m² | - |
* Rain latest hour (hover to see other rain measurements)
** Current wind speed in m/s (hover to see current wind gust speed)